Time,TemperatureF,DewpointF,PressureIn,WindDirection,WindDirectionDegrees,WindSpeedMPH,WindSpeedGustMPH,Humidity,HourlyPrecipIn,Conditions,Clouds,dailyrainin,SoftwareType,DateUTC
2013-06-18 00:01:00,59.5,46.1,29.77,ESE,123,0.0,0.0,61,0.00,,---,0.00,VWS V14.01,2013-06-18 07:01:00,
2013-06-18 00:06:00,59.5,46.5,29.80,North,353,5.4,5.4,62,0.00,,---,0.00,VWS V14.01,2013-06-18 07:06:00,
2013-06-18 00:11:00,59.4,46.3,29.80,ESE,122,2.7,2.7,62,0.00,,---,0.00,VWS V14.01,2013-06-18 07:11:00,
2013-06-18 00:17:00,59.5,46.1,29.80,ESE,122,2.2,2.7,61,0.00,,---,0.00,VWS V14.01,2013-06-18 07:17:00,
2013-06-18 00:22:00,59.5,46.1,29.80,SE,125,3.1,3.1,61,0.00,,---,0.00,VWS V14.01,2013-06-18 07:22:00,
2013-06-18 00:27:00,59.4,46.3,29.80,NNE,33,0.0,3.6,62,0.00,,---,0.00,VWS V14.01,2013-06-18 07:27:00,
2013-06-18 00:32:00,59.2,46.2,29.80,East,85,0.0,0.0,62,0.00,,---,0.00,VWS V14.01,2013-06-18 07:32:00,
2013-06-18 00:37:00,58.8,46.3,29.80,NE,38,0.0,0.0,63,0.00,,---,0.00,VWS V14.01,2013-06-18 07:37:00,
2013-06-18 00:42:00,58.6,46.1,29.80,NE,38,0.0,0.0,63,0.00,,---,0.00,VWS V14.01,2013-06-18 07:42:00,
2013-06-18 00:47:00,58.3,45.8,29.80,NNE,27,0.0,0.0,63,0.00,,---,0.00,VWS V14.01,2013-06-18 07:47:00,
2013-06-18 00:52:00,58.3,46.2,29.80,NW,309,0.0,5.4,64,0.00,,---,0.00,VWS V14.01,2013-06-18 07:52:00,
2013-06-18 00:57:00,58.5,45.9,29.80,WNW,292,3.6,5.4,63,0.00,,---,0.00,VWS V14.01,2013-06-18 07:57:00,
2013-06-18 01:03:00,58.5,45.9,29.80,WNW,295,0.0,2.2,63,0.00,,---,0.00,VWS V14.01,2013-06-18 08:03:00,
2013-06-18 01:08:00,58.5,45.9,29.80,WSW,237,0.0,2.2,63,0.00,,---,0.00,VWS V14.01,2013-06-18 08:08:00,
2013-06-18 01:13:00,58.3,46.2,29.80,WSW,243,0.0,0.0,64,0.00,,---,0.00,VWS V14.01,2013-06-18 08:13:00,
2013-06-18 01:18:00,58.1,45.6,29.80,SE,142,4.5,4.5,63,0.00,,---,0.00,VWS V14.01,2013-06-18 08:18:00,
2013-06-18 01:23:00,58.1,45.2,29.80,WNW,292,0.0,4.5,62,0.00,,---,0.00,VWS V14.01,2013-06-18 08:23:00,
2013-06-18 01:28:00,58.1,45.2,29.80,WNW,292,0.0,4.5,62,0.00,,---,0.00,VWS V14.01,2013-06-18 08:28:00,
2013-06-18 01:33:00,58.1,45.2,29.80,WNW,292,0.0,0.0,62,0.00,,---,0.00,VWS V14.01,2013-06-18 08:33:00,
2013-06-18 01:38:00,57.9,45.4,29.80,SSE,158,2.7,3.1,63,0.00,,---,0.00,VWS V14.01,2013-06-18 08:38:00,
2013-06-18 01:43:00,57.6,45.1,29.80,SSE,158,2.7,2.7,63,0.00,,---,0.00,VWS V14.01,2013-06-18 08:43:00,
2013-06-18 01:48:00,57.2,45.2,29.80,SSE,158,2.7,2.7,64,0.00,,---,0.00,VWS V14.01,2013-06-18 08:48:00,
2013-06-18 01:54:00,56.8,45.2,29.80,SSE,158,2.7,2.7,65,0.00,,---,0.00,VWS V14.01,2013-06-18 08:54:00,
2013-06-18 01:59:00,56.5,44.9,29.80,SSE,158,2.7,2.7,65,0.00,,---,0.00,VWS V14.01,2013-06-18 08:59:00,
2013-06-18 02:04:00,56.3,44.7,29.80,SSE,158,2.7,2.7,65,0.00,,---,0.00,VWS V14.01,2013-06-18 09:04:00,
2013-06-18 02:09:00,55.9,44.8,29.80,SSE,158,2.7,2.7,66,0.00,,---,0.00,VWS V14.01,2013-06-18 09:09:00,
2013-06-18 02:14:00,55.8,44.6,29.80,SSE,158,2.7,2.7,66,0.00,,---,0.00,VWS V14.01,2013-06-18 09:14:00,
2013-06-18 02:19:00,55.6,44.4,29.80,SSE,158,2.7,2.7,66,0.00,,---,0.00,VWS V14.01,2013-06-18 09:19:00,
2013-06-18 02:24:00,55.4,44.6,29.80,SSE,158,2.7,2.7,67,0.00,,---,0.00,VWS V14.01,2013-06-18 09:24:00,
2013-06-18 02:29:00,55.0,44.7,29.80,SSE,158,2.7,2.7,68,0.00,,---,0.00,VWS V14.01,2013-06-18 09:29:00,
2013-06-18 02:34:00,54.9,44.5,29.80,SSE,158,2.7,2.7,68,0.00,,---,0.00,VWS V14.01,2013-06-18 09:34:00,
2013-06-18 02:39:00,54.5,44.2,29.80,SSE,158,2.7,2.7,68,0.00,,---,0.00,VWS V14.01,2013-06-18 09:39:00,
2013-06-18 02:44:00,54.3,44.4,29.80,ENE,59,0.0,2.7,69,0.00,,---,0.00,VWS V14.01,2013-06-18 09:44:00,
2013-06-18 02:49:00,54.0,44.4,29.80,ENE,59,0.0,2.7,70,0.00,,---,0.00,VWS V14.01,2013-06-18 09:49:00,
2013-06-18 02:54:00,53.8,44.2,29.80,ENE,59,0.0,0.0,70,0.00,,---,0.00,VWS V14.01,2013-06-18 09:54:00,
2013-06-18 03:00:00,53.8,44.6,29.80,ENE,59,0.0,0.0,71,0.00,,---,0.00,VWS V14.01,2013-06-18 10:00:00,
2013-06-18 03:05:00,53.8,44.6,29.80,ENE,59,0.0,0.0,71,0.00,,---,0.00,VWS V14.01,2013-06-18 10:05:00,
2013-06-18 03:10:00,53.8,44.6,29.80,ENE,59,0.0,0.0,71,0.00,,---,0.00,VWS V14.01,2013-06-18 10:10:00,
2013-06-18 03:15:00,53.8,45.0,29.80,ENE,59,0.0,0.0,72,0.00,,---,0.00,VWS V14.01,2013-06-18 10:15:00,
2013-06-18 03:20:00,53.8,45.0,29.80,ENE,59,0.0,0.0,72,0.00,,---,0.00,VWS V14.01,2013-06-18 10:20:00,
2013-06-18 03:25:00,54.0,45.2,29.80,ENE,59,0.0,0.0,72,0.00,,---,0.00,VWS V14.01,2013-06-18 10:25:00,
2013-06-18 03:30:00,53.8,45.0,29.80,ENE,59,0.0,0.0,72,0.00,,---,0.00,VWS V14.01,2013-06-18 10:30:00,
2013-06-18 03:35:00,53.8,45.0,29.80,ENE,59,0.0,0.0,72,0.00,,---,0.00,VWS V14.01,2013-06-18 10:35:00,
2013-06-18 03:40:00,53.8,45.0,29.80,ENE,59,0.0,0.0,72,0.00,,---,0.00,VWS V14.01,2013-06-18 10:40:00,
2013-06-18 03:45:00,53.8,45.0,29.80,ENE,59,0.0,0.0,72,0.00,,---,0.00,VWS V14.01,2013-06-18 10:45:00,
2013-06-18 03:50:00,53.8,45.3,29.80,ENE,59,0.0,0.0,73,0.00,,---,0.00,VWS V14.01,2013-06-18 10:50:00,
2013-06-18 03:55:00,54.0,45.5,29.80,ENE,67,0.0,0.0,73,0.00,,---,0.00,VWS V14.01,2013-06-18 10:55:00,
2013-06-18 04:01:00,54.0,45.2,29.80,ENE,67,0.0,0.0,72,0.00,,---,0.00,VWS V14.01,2013-06-18 11:01:00,
2013-06-18 04:06:00,54.1,45.3,29.80,ENE,67,0.0,0.0,72,0.00,,---,0.00,VWS V14.01,2013-06-18 11:06:00,
2013-06-18 04:11:00,54.1,45.3,29.80,SSE,162,2.7,2.7,72,0.00,,---,0.00,VWS V14.01,2013-06-18 11:11:00,
2013-06-18 04:17:00,54.1,45.3,29.80,SSE,162,2.7,2.7,72,0.00,,---,0.00,VWS V14.01,2013-06-18 11:17:00,
2013-06-18 04:22:00,54.1,45.3,29.80,ESE,102,0.0,2.7,72,0.00,,---,0.00,VWS V14.01,2013-06-18 11:22:00,
2013-06-18 04:27:00,54.1,45.3,29.80,ESE,102,0.0,2.7,72,0.00,,---,0.00,VWS V14.01,2013-06-18 11:27:00,
2013-06-18 04:32:00,54.1,45.3,29.80,ESE,102,0.0,0.0,72,0.00,,---,0.00,VWS V14.01,2013-06-18 11:32:00,
2013-06-18 04:37:00,54.0,45.2,29.80,ESE,102,0.0,0.0,72,0.00,,---,0.00,VWS V14.01,2013-06-18 11:37:00,
2013-06-18 04:42:00,54.0,45.2,29.80,ESE,102,0.0,0.0,72,0.00,,---,0.00,VWS V14.01,2013-06-18 11:42:00,
2013-06-18 04:47:00,54.0,45.2,29.80,ESE,102,0.0,0.0,72,0.00,,---,0.00,VWS V14.01,2013-06-18 11:47:00,
2013-06-18 04:53:00,53.8,45.0,29.80,ESE,116,0.0,0.0,72,0.00,,---,0.00,VWS V14.01,2013-06-18 11:53:00,
2013-06-18 04:58:00,53.8,45.0,29.80,ESE,116,0.0,0.0,72,0.00,,---,0.00,VWS V14.01,2013-06-18 11:58:00,
2013-06-18 05:03:00,53.6,44.8,29.80,ESE,116,0.0,0.0,72,0.00,,---,0.00,VWS V14.01,2013-06-18 12:03:00,
2013-06-18 05:08:00,53.6,44.8,29.80,ESE,116,0.0,0.0,72,0.00,,---,0.00,VWS V14.01,2013-06-18 12:08:00,
2013-06-18 05:13:00,53.4,45.0,29.80,ESE,116,0.0,0.0,73,0.00,,---,0.00,VWS V14.01,2013-06-18 12:13:00,
2013-06-18 05:19:00,53.2,44.8,29.80,ESE,116,0.0,0.0,73,0.00,,---,0.00,VWS V14.01,2013-06-18 12:19:00,
2013-06-18 05:24:00,53.1,44.7,29.80,ESE,116,0.0,0.0,73,0.00,,---,0.00,VWS V14.01,2013-06-18 12:24:00,
2013-06-18 05:29:00,52.9,44.5,29.80,ESE,116,0.0,0.0,73,0.00,,---,0.00,VWS V14.01,2013-06-18 12:29:00,
2013-06-18 05:34:00,52.7,44.7,29.80,ESE,112,3.1,3.1,74,0.00,,---,0.00,VWS V14.01,2013-06-18 12:34:00,
2013-06-18 05:40:00,52.7,44.7,29.80,ESE,112,3.1,3.1,74,0.00,,---,0.00,VWS V14.01,2013-06-18 12:40:00,
2013-06-18 05:45:00,52.5,44.5,29.80,ESE,112,3.1,3.1,74,0.00,,---,0.00,VWS V14.01,2013-06-18 12:45:00,
2013-06-18 05:50:00,52.3,44.3,29.80,ESE,112,3.1,3.1,74,0.00,,---,0.00,VWS V14.01,2013-06-18 12:50:00,
2013-06-18 05:55:00,52.3,44.3,29.80,North,357,0.0,3.1,74,0.00,,---,0.00,VWS V14.01,2013-06-18 12:55:00,
2013-06-18 06:00:00,52.2,44.5,29.80,ENE,74,0.0,0.0,75,0.00,,---,0.00,VWS V14.01,2013-06-18 13:00:00,
2013-06-18 06:05:00,52.2,44.5,29.80,ENE,74,0.0,0.0,75,0.00,,---,0.00,VWS V14.01,2013-06-18 13:05:00,
2013-06-18 06:10:00,52.2,44.5,29.80,ENE,74,0.0,0.0,75,0.00,,---,0.00,VWS V14.01,2013-06-18 13:10:00,
2013-06-18 06:15:00,52.0,44.3,29.80,ENE,74,0.0,0.0,75,0.00,,---,0.00,VWS V14.01,2013-06-18 13:15:00,
2013-06-18 06:20:00,51.8,44.1,29.80,ENE,74,0.0,0.0,75,0.00,,---,0.00,VWS V14.01,2013-06-18 13:20:00,
2013-06-18 06:26:00,51.6,44.3,29.80,ENE,74,0.0,0.0,76,0.00,,---,0.00,VWS V14.01,2013-06-18 13:26:00,
2013-06-18 06:31:00,51.6,44.3,29.80,ENE,74,0.0,0.0,76,0.00,,---,0.00,VWS V14.01,2013-06-18 13:31:00,
2013-06-18 06:36:00,51.6,44.3,29.80,ENE,74,0.0,0.0,76,0.00,,---,0.00,VWS V14.01,2013-06-18 13:36:00,
2013-06-18 06:41:00,51.4,44.5,29.80,ENE,74,0.0,0.0,77,0.00,,---,0.00,VWS V14.01,2013-06-18 13:41:00,
2013-06-18 06:46:00,51.3,44.3,29.80,ENE,74,0.0,0.0,77,0.00,,---,0.00,VWS V14.01,2013-06-18 13:46:00,
2013-06-18 06:51:00,51.1,44.1,29.80,ENE,74,0.0,0.0,77,0.00,,---,0.00,VWS V14.01,2013-06-18 13:51:00,
2013-06-18 06:56:00,50.9,44.3,29.80,ENE,74,0.0,0.0,78,0.00,,---,0.00,VWS V14.01,2013-06-18 13:56:00,
2013-06-18 07:02:00,50.9,44.3,29.80,ENE,74,0.0,0.0,78,0.00,,---,0.00,VWS V14.01,2013-06-18 14:02:00,
2013-06-18 07:07:00,50.9,44.6,29.80,ENE,74,0.0,0.0,79,0.00,,---,0.00,VWS V14.01,2013-06-18 14:07:00,
2013-06-18 07:12:00,50.9,44.6,29.80,ENE,74,0.0,0.0,79,0.00,,---,0.00,VWS V14.01,2013-06-18 14:12:00,
2013-06-18 07:17:00,51.1,45.1,29.80,ENE,74,0.0,0.0,80,0.00,,---,0.00,VWS V14.01,2013-06-18 14:17:00,
2013-06-18 07:22:00,51.3,45.3,29.80,ENE,61,0.0,0.0,80,0.00,,---,0.00,VWS V14.01,2013-06-18 14:22:00,
2013-06-18 07:27:00,51.3,45.3,29.80,ENE,61,0.0,0.0,80,0.00,,---,0.00,VWS V14.01,2013-06-18 14:27:00,
2013-06-18 07:32:00,51.4,45.5,29.80,ENE,61,0.0,0.0,80,0.00,,---,0.00,VWS V14.01,2013-06-18 14:32:00,
2013-06-18 07:37:00,51.6,45.7,29.80,ENE,61,0.0,0.0,80,0.00,,---,0.00,VWS V14.01,2013-06-18 14:37:00,
2013-06-18 07:42:00,51.8,45.8,29.80,ENE,61,0.0,0.0,80,0.00,,---,0.00,VWS V14.01,2013-06-18 14:42:00,
2013-06-18 07:48:00,52.2,45.8,29.80,SE,127,0.0,0.0,79,0.00,,---,0.00,VWS V14.01,2013-06-18 14:48:00,
2013-06-18 07:53:00,52.5,46.2,29.80,SE,127,0.0,0.0,79,0.00,,---,0.00,VWS V14.01,2013-06-18 14:53:00,
2013-06-18 07:58:00,52.9,46.5,29.80,SE,127,0.0,0.0,79,0.00,,---,0.00,VWS V14.01,2013-06-18 14:58:00,
2013-06-18 08:03:00,53.2,46.6,29.80,SE,127,0.0,0.0,78,0.00,,---,0.00,VWS V14.01,2013-06-18 15:03:00,
2013-06-18 08:08:00,53.6,46.9,29.80,SE,127,0.0,0.0,78,0.00,,---,0.00,VWS V14.01,2013-06-18 15:08:00,
2013-06-18 08:14:00,54.0,46.9,29.80,SE,127,0.0,0.0,77,0.00,,---,0.00,VWS V14.01,2013-06-18 15:14:00,
2013-06-18 08:19:00,54.5,47.1,29.80,SE,127,0.0,0.0,76,0.00,,---,0.00,VWS V14.01,2013-06-18 15:19:00,
2013-06-18 08:24:00,54.9,47.1,29.77,SE,127,0.0,0.0,75,0.00,,---,0.00,VWS V14.01,2013-06-18 15:24:00,
2013-06-18 08:29:00,55.2,47.5,29.77,SE,127,0.0,0.0,75,0.00,,---,0.00,VWS V14.01,2013-06-18 15:29:00,
2013-06-18 08:34:00,55.9,47.4,29.77,SE,127,0.0,0.0,73,0.00,,---,0.00,VWS V14.01,2013-06-18 15:34:00,
2013-06-18 08:39:00,56.3,47.4,29.77,NE,51,0.0,0.0,72,0.00,,---,0.00,VWS V14.01,2013-06-18 15:39:00,
2013-06-18 08:44:00,56.7,47.4,29.77,NE,51,0.0,0.0,71,0.00,,---,0.00,VWS V14.01,2013-06-18 15:44:00,
2013-06-18 08:50:00,56.8,47.5,29.77,NE,51,0.0,0.0,71,0.00,,---,0.00,VWS V14.01,2013-06-18 15:50:00,
2013-06-18 08:55:00,56.8,47.5,29.77,NE,51,0.0,0.0,71,0.00,,---,0.00,VWS V14.01,2013-06-18 15:55:00,
2013-06-18 09:00:00,57.0,47.7,29.77,NE,51,0.0,0.0,71,0.00,,---,0.00,VWS V14.01,2013-06-18 16:00:00,
2013-06-18 09:05:00,57.0,47.7,29.77,NE,51,0.0,0.0,71,0.00,,---,0.00,VWS V14.01,2013-06-18 16:05:00,
2013-06-18 09:10:00,57.4,47.7,29.77,NE,51,0.0,0.0,70,0.00,,---,0.00,VWS V14.01,2013-06-18 16:10:00,
2013-06-18 09:15:00,57.6,47.5,29.77,NE,51,0.0,0.0,69,0.00,,---,0.00,VWS V14.01,2013-06-18 16:15:00,
2013-06-18 09:20:00,58.1,47.6,29.77,NE,51,0.0,0.0,68,0.00,,---,0.00,VWS V14.01,2013-06-18 16:20:00,
2013-06-18 09:25:00,58.3,47.4,29.77,NE,51,0.0,0.0,67,0.00,,---,0.00,VWS V14.01,2013-06-18 16:25:00,
2013-06-18 09:30:00,58.5,47.6,29.77,NE,51,0.0,0.0,67,0.00,,---,0.00,VWS V14.01,2013-06-18 16:30:00,
2013-06-18 09:36:00,58.8,47.5,29.77,ENE,74,3.1,3.1,66,0.00,,---,0.00,VWS V14.01,2013-06-18 16:36:00,
2013-06-18 09:41:00,59.2,47.0,29.77,ENE,74,3.1,3.1,64,0.00,,---,0.00,VWS V14.01,2013-06-18 16:41:00,
2013-06-18 09:46:00,59.4,46.8,29.77,NNW,335,3.1,3.1,63,0.00,,---,0.00,VWS V14.01,2013-06-18 16:46:00,
2013-06-18 09:51:00,59.7,46.7,29.77,ESE,103,0.0,0.0,62,0.00,,---,0.00,VWS V14.01,2013-06-18 16:51:00,
2013-06-18 09:56:00,60.1,46.6,29.77,SSW,194,0.0,0.0,61,0.00,,---,0.00,VWS V14.01,2013-06-18 16:56:00,
2013-06-18 10:01:00,60.4,46.1,29.77,South,172,3.1,3.1,59,0.00,,---,0.00,VWS V14.01,2013-06-18 17:01:00,
2013-06-18 10:06:00,60.6,45.8,29.77,SE,127,0.0,3.1,58,0.00,,---,0.00,VWS V14.01,2013-06-18 17:06:00,
2013-06-18 10:11:00,61.0,45.7,29.77,SE,127,0.0,0.0,57,0.00,,---,0.00,VWS V14.01,2013-06-18 17:11:00,
2013-06-18 10:16:00,61.3,43.1,29.77,WNW,301,4.0,4.0,51,0.00,,---,0.00,VWS V14.01,2013-06-18 17:16:00,
2013-06-18 10:21:00,61.3,44.1,29.77,WNW,301,4.0,4.0,53,0.00,,---,0.00,VWS V14.01,2013-06-18 17:21:00,
2013-06-18 10:26:00,61.5,44.7,29.77,SSE,158,0.0,4.0,54,0.00,,---,0.00,VWS V14.01,2013-06-18 17:26:00,
2013-06-18 10:31:00,61.9,44.1,29.77,SE,142,0.0,0.0,52,0.00,,---,0.00,VWS V14.01,2013-06-18 17:31:00,
2013-06-18 10:37:00,62.2,43.4,29.77,WSW,237,2.7,3.6,50,0.00,,---,0.00,VWS V14.01,2013-06-18 17:37:00,
2013-06-18 10:42:00,62.6,43.2,29.77,WNW,284,0.0,2.7,49,0.00,,---,0.00,VWS V14.01,2013-06-18 17:42:00,
2013-06-18 10:47:00,62.6,43.7,29.77,SSW,210,3.6,4.9,50,0.00,,---,0.00,VWS V14.01,2013-06-18 17:47:00,
2013-06-18 10:52:00,62.6,43.7,29.74,SW,230,0.0,0.0,50,0.00,,---,0.00,VWS V14.01,2013-06-18 17:52:00,
2013-06-18 10:57:00,63.0,43.5,29.74,WNW,302,4.0,4.0,49,0.00,,---,0.00,VWS V14.01,2013-06-18 17:57:00,
2013-06-18 11:02:00,63.5,44.5,29.74,SE,145,0.0,0.0,50,0.00,,---,0.00,VWS V14.01,2013-06-18 18:02:00,
2013-06-18 11:07:00,63.9,43.8,29.74,SE,145,0.0,0.0,48,0.00,,---,0.00,VWS V14.01,2013-06-18 18:07:00,
2013-06-18 11:13:00,63.7,44.2,29.74,NE,41,0.0,0.0,49,0.00,,---,0.00,VWS V14.01,2013-06-18 18:13:00,
2013-06-18 11:18:00,63.5,43.5,29.74,SE,138,0.0,0.0,48,0.00,,---,0.00,VWS V14.01,2013-06-18 18:18:00,
2013-06-18 11:23:00,64.0,42.9,29.74,ENE,75,0.0,0.0,46,0.00,,---,0.00,VWS V14.01,2013-06-18 18:23:00,
2013-06-18 11:28:00,65.1,43.3,29.74,North,357,4.0,4.9,45,0.00,,---,0.00,VWS V14.01,2013-06-18 18:28:00,
2013-06-18 11:33:00,66.0,43.5,29.74,NNW,342,3.6,6.3,44,0.00,,---,0.00,VWS V14.01,2013-06-18 18:33:00,
2013-06-18 11:38:00,67.1,44.5,29.74,North,11,2.7,6.3,44,0.00,,---,0.00,VWS V14.01,2013-06-18 18:38:00,
2013-06-18 11:43:00,67.8,44.5,29.74,North,353,0.0,6.3,43,0.00,,---,0.00,VWS V14.01,2013-06-18 18:43:00,
2013-06-18 11:49:00,68.7,45.3,29.74,SSW,192,0.0,6.3,43,0.00,,---,0.00,VWS V14.01,2013-06-18 18:49:00,
2013-06-18 11:54:00,69.6,44.9,29.74,West,265,3.1,3.6,41,0.00,,---,0.00,VWS V14.01,2013-06-18 18:54:00,
2013-06-18 11:59:00,70.0,43.2,29.74,West,281,2.2,8.7,38,0.00,,---,0.00,VWS V14.01,2013-06-18 18:59:00,
2013-06-18 12:04:00,70.0,43.2,29.74,NNW,328,0.0,3.1,38,0.00,,---,0.00,VWS V14.01,2013-06-18 19:04:00,
2013-06-18 12:09:00,70.2,43.4,29.74,NNE,13,0.0,4.0,38,0.00,,---,0.00,VWS V14.01,2013-06-18 19:09:00,
2013-06-18 12:15:00,69.8,41.7,29.74,NW,318,3.6,4.0,36,0.00,,---,0.00,VWS V14.01,2013-06-18 19:15:00,
2013-06-18 12:20:00,69.1,41.7,29.74,NNW,330,4.0,4.0,37,0.00,,---,0.00,VWS V14.01,2013-06-18 19:20:00,
2013-06-18 12:25:00,68.5,41.3,29.74,NW,317,5.4,6.3,37,0.00,,---,0.00,VWS V14.01,2013-06-18 19:25:00,
2013-06-18 12:30:00,67.8,41.3,29.74,NW,325,2.7,2.7,38,0.00,,---,0.00,VWS V14.01,2013-06-18 19:30:00,
2013-06-18 12:35:00,67.3,40.8,29.74,SSW,203,0.0,2.7,38,0.00,,---,0.00,VWS V14.01,2013-06-18 19:35:00,
2013-06-18 12:40:00,67.1,42.0,29.74,ESE,114,2.2,2.2,40,0.00,,---,0.00,VWS V14.01,2013-06-18 19:40:00,
2013-06-18 12:45:00,67.1,42.0,29.74,NW,315,2.7,4.0,40,0.00,,---,0.00,VWS V14.01,2013-06-18 19:45:00,
2013-06-18 12:50:00,67.5,43.6,29.74,WNW,283,3.6,4.0,42,0.00,,---,0.00,VWS V14.01,2013-06-18 19:50:00,
2013-06-18 12:55:00,67.5,43.6,29.74,WSW,238,4.0,4.0,42,0.00,,---,0.00,VWS V14.01,2013-06-18 19:55:00,
2013-06-18 13:00:00,67.3,43.4,29.74,SW,232,2.7,5.4,42,0.00,,---,0.00,VWS V14.01,2013-06-18 20:00:00,
2013-06-18 13:06:00,67.1,43.3,29.74,NW,310,4.0,5.4,42,0.00,,---,0.00,VWS V14.01,2013-06-18 20:06:00,
2013-06-18 13:11:00,66.9,44.9,29.74,West,270,4.9,4.9,45,0.00,,---,0.00,VWS V14.01,2013-06-18 20:11:00,
2013-06-18 13:16:00,66.7,42.3,29.74,NNW,332,4.0,5.8,41,0.00,,---,0.00,VWS V14.01,2013-06-18 20:16:00,
2013-06-18 13:21:00,66.6,42.8,29.74,West,277,3.1,5.4,42,0.00,,---,0.00,VWS V14.01,2013-06-18 20:21:00,
2013-06-18 13:26:00,66.6,42.8,29.74,WSW,253,2.7,5.4,42,0.00,,---,0.00,VWS V14.01,2013-06-18 20:26:00,
2013-06-18 13:31:00,66.7,42.9,29.74,SW,236,2.2,4.0,42,0.00,,---,0.00,VWS V14.01,2013-06-18 20:31:00,
2013-06-18 13:36:00,67.3,43.4,29.71,West,265,3.6,4.9,42,0.00,,---,0.00,VWS V14.01,2013-06-18 20:36:00,
2013-06-18 13:41:00,68.2,43.0,29.71,SSE,157,6.3,6.3,40,0.00,,---,0.00,VWS V14.01,2013-06-18 20:41:00,
2013-06-18 13:46:00,69.4,45.4,29.71,SSW,207,4.0,6.3,42,0.00,,---,0.00,VWS V14.01,2013-06-18 20:46:00,
2013-06-18 13:52:00,70.3,44.9,29.71,SW,235,3.6,4.9,40,0.00,,---,0.00,VWS V14.01,2013-06-18 20:52:00,
2013-06-18 13:57:00,70.2,44.7,29.71,WSW,252,5.4,7.2,40,0.00,,---,0.00,VWS V14.01,2013-06-18 20:57:00,
2013-06-18 14:03:00,69.4,43.4,29.71,WNW,302,5.4,5.4,39,0.00,,---,0.00,VWS V14.01,2013-06-18 21:03:00,
2013-06-18 14:08:00,68.7,44.7,29.71,WNW,302,5.4,5.4,42,0.00,,---,0.00,VWS V14.01,2013-06-18 21:08:00,
2013-06-18 14:13:00,68.4,45.0,29.71,WNW,302,5.4,5.4,43,0.00,,---,0.00,VWS V14.01,2013-06-18 21:13:00,
2013-06-18 14:18:00,67.6,44.4,29.71,WNW,302,5.4,5.4,43,0.00,,---,0.00,VWS V14.01,2013-06-18 21:18:00,
2013-06-18 14:23:00,66.9,43.7,29.71,WNW,302,5.4,5.4,43,0.00,,---,0.00,VWS V14.01,2013-06-18 21:23:00,
2013-06-18 14:28:00,66.4,44.4,29.71,WNW,302,5.4,5.4,45,0.00,,---,0.00,VWS V14.01,2013-06-18 21:28:00,
2013-06-18 14:33:00,65.8,43.9,29.71,WNW,302,5.4,5.4,45,0.00,,---,0.00,VWS V14.01,2013-06-18 21:33:00,
2013-06-18 14:38:00,65.5,44.7,29.74,WNW,294,0.0,5.4,47,0.00,,---,0.00,VWS V14.01,2013-06-18 21:38:00,
2013-06-18 14:43:00,64.9,44.8,29.74,West,268,0.0,0.0,48,0.00,,---,0.00,VWS V14.01,2013-06-18 21:43:00,
2013-06-18 14:48:00,64.2,46.8,29.74,West,268,0.0,0.0,53,0.00,,---,0.00,VWS V14.01,2013-06-18 21:48:00,
2013-06-18 14:53:00,63.5,48.0,29.74,West,269,0.0,0.0,57,0.00,,---,0.00,VWS V14.01,2013-06-18 21:53:00,
2013-06-18 14:58:00,62.4,48.8,29.74,West,269,0.0,0.0,61,0.00,,---,0.00,VWS V14.01,2013-06-18 21:58:00,
2013-06-18 15:03:00,61.3,49.1,29.74,West,269,0.0,0.0,64,0.00,,---,0.00,VWS V14.01,2013-06-18 22:03:00,
2013-06-18 15:08:00,60.4,49.0,29.74,West,269,0.0,0.0,66,0.00,,---,0.00,VWS V14.01,2013-06-18 22:08:00,
2013-06-18 15:13:00,59.7,49.2,29.74,West,269,0.0,0.0,68,0.00,,---,0.00,VWS V14.01,2013-06-18 22:13:00,
2013-06-18 15:18:00,59.0,49.2,29.74,West,269,0.0,0.0,70,0.00,,---,0.00,VWS V14.01,2013-06-18 22:18:00,
2013-06-18 15:24:00,58.6,50.0,29.74,West,269,0.0,0.0,73,0.00,,---,0.00,VWS V14.01,2013-06-18 22:24:00,
2013-06-18 15:29:00,58.5,50.6,29.74,West,269,0.0,0.0,75,0.00,,---,0.00,VWS V14.01,2013-06-18 22:29:00,
2013-06-18 15:34:00,58.3,51.1,29.74,West,269,0.0,0.0,77,0.00,,---,0.00,VWS V14.01,2013-06-18 22:34:00,
2013-06-18 15:39:00,58.1,51.3,29.74,West,269,0.0,0.0,78,0.00,,---,0.00,VWS V14.01,2013-06-18 22:39:00,
2013-06-18 15:44:00,58.1,51.6,29.74,West,269,0.0,0.0,79,0.00,,---,0.00,VWS V14.01,2013-06-18 22:44:00,
2013-06-18 15:49:00,58.3,52.5,29.74,West,269,0.0,0.0,81,0.00,,---,0.00,VWS V14.01,2013-06-18 22:49:00,
2013-06-18 15:54:00,58.5,53.0,29.74,West,269,0.0,0.0,82,0.00,,---,0.00,VWS V14.01,2013-06-18 22:54:00,
2013-06-18 15:59:00,58.8,53.3,29.74,West,269,0.0,0.0,82,0.00,,---,0.00,VWS V14.01,2013-06-18 22:59:00,
2013-06-18 16:05:00,58.8,53.3,29.77,West,269,0.0,0.0,82,0.00,,---,0.00,VWS V14.01,2013-06-18 23:05:00,
2013-06-18 16:10:00,59.0,53.5,29.77,West,269,0.0,0.0,82,0.00,,---,0.00,VWS V14.01,2013-06-18 23:10:00,
2013-06-18 16:15:00,59.4,53.9,29.77,West,269,0.0,0.0,82,0.00,,---,0.00,VWS V14.01,2013-06-18 23:15:00,
2013-06-18 16:20:00,59.4,53.9,29.74,West,269,0.0,0.0,82,0.00,,---,0.00,VWS V14.01,2013-06-18 23:20:00,
2013-06-18 16:25:00,59.4,53.9,29.74,West,269,0.0,0.0,82,0.00,,---,0.00,VWS V14.01,2013-06-18 23:25:00,
2013-06-18 16:30:00,59.4,53.2,29.74,West,269,0.0,0.0,80,0.00,,---,0.00,VWS V14.01,2013-06-18 23:30:00,
2013-06-18 16:35:00,59.4,53.2,29.74,West,269,0.0,0.0,80,0.00,,---,0.00,VWS V14.01,2013-06-18 23:35:00,
2013-06-18 16:40:00,59.2,52.7,29.74,West,269,0.0,0.0,79,0.00,,---,0.00,VWS V14.01,2013-06-18 23:40:00,
2013-06-18 16:45:00,59.0,52.2,29.74,West,269,0.0,0.0,78,0.00,,---,0.00,VWS V14.01,2013-06-18 23:45:00,
2013-06-18 16:50:00,58.8,52.0,29.74,West,269,0.0,0.0,78,0.00,,---,0.00,VWS V14.01,2013-06-18 23:50:00,
2013-06-18 16:55:00,58.5,51.3,29.74,West,271,2.7,3.1,77,0.00,,---,0.00,VWS V14.01,2013-06-18 23:55:00,
2013-06-18 17:00:00,58.3,50.8,29.74,WSW,240,0.0,0.0,76,0.00,,---,0.00,VWS V14.01,2013-06-19 00:00:00,
2013-06-18 17:05:00,57.9,50.4,29.77,WSW,243,3.1,3.6,76,0.00,,---,0.00,VWS V14.01,2013-06-19 00:05:00,
2013-06-18 17:11:00,57.7,50.2,29.77,WSW,247,0.0,0.0,76,0.00,,---,0.00,VWS V14.01,2013-06-19 00:11:00,
2013-06-18 17:16:00,57.4,50.2,29.77,WSW,247,0.0,0.0,77,0.00,,---,0.00,VWS V14.01,2013-06-19 00:16:00,
2013-06-18 17:21:00,57.2,50.1,29.77,WSW,245,0.0,0.0,77,0.00,,---,0.00,VWS V14.01,2013-06-19 00:21:00,
2013-06-18 17:26:00,57.0,50.2,29.77,WSW,248,0.0,0.0,78,0.00,,---,0.00,VWS V14.01,2013-06-19 00:26:00,
2013-06-18 17:31:00,56.8,50.4,29.77,WSW,248,0.0,0.0,79,0.00,,---,0.00,VWS V14.01,2013-06-19 00:31:00,
2013-06-18 17:36:00,56.7,50.2,29.77,WSW,248,0.0,0.0,79,0.00,,---,0.00,VWS V14.01,2013-06-19 00:36:00,
2013-06-18 17:41:00,56.3,50.2,29.77,WSW,248,0.0,0.0,80,0.00,,---,0.00,VWS V14.01,2013-06-19 00:41:00,
2013-06-18 17:46:00,56.1,50.4,29.77,WSW,248,0.0,0.0,81,0.04,,---,0.04,VWS V14.01,2013-06-19 00:46:00,
2013-06-18 17:51:00,56.1,50.7,29.77,WSW,248,0.0,0.0,82,0.04,,---,0.04,VWS V14.01,2013-06-19 00:51:00,
2013-06-18 17:56:00,55.9,50.5,29.77,WSW,248,0.0,0.0,82,0.04,,---,0.04,VWS V14.01,2013-06-19 00:56:00,
2013-06-18 18:01:00,55.9,50.9,29.77,WSW,248,0.0,0.0,83,0.04,,---,0.04,VWS V14.01,2013-06-19 01:01:00,
2013-06-18 18:06:00,55.9,51.2,29.77,WSW,248,0.0,0.0,84,0.04,,---,0.04,VWS V14.01,2013-06-19 01:06:00,
2013-06-18 18:11:00,55.9,51.2,29.77,WSW,248,0.0,0.0,84,0.04,,---,0.04,VWS V14.01,2013-06-19 01:11:00,
2013-06-18 18:17:00,55.9,51.2,29.77,WSW,248,0.0,0.0,84,0.04,,---,0.04,VWS V14.01,2013-06-19 01:17:00,
2013-06-18 18:22:00,55.9,51.2,29.77,WSW,248,0.0,0.0,84,0.04,,---,0.04,VWS V14.01,2013-06-19 01:22:00,
2013-06-18 18:27:00,55.9,51.2,29.77,WSW,248,0.0,0.0,84,0.04,,---,0.04,VWS V14.01,2013-06-19 01:27:00,
2013-06-18 18:32:00,55.8,51.3,29.77,WSW,248,0.0,0.0,85,0.04,,---,0.04,VWS V14.01,2013-06-19 01:32:00,
2013-06-18 18:37:00,55.8,51.3,29.77,WSW,248,0.0,0.0,85,0.04,,---,0.04,VWS V14.01,2013-06-19 01:37:00,
2013-06-18 18:42:00,55.8,51.3,29.77,WSW,248,0.0,0.0,85,0.04,,---,0.04,VWS V14.01,2013-06-19 01:42:00,
2013-06-18 18:47:00,55.6,51.5,29.77,WSW,248,0.0,0.0,86,0.04,,---,0.04,VWS V14.01,2013-06-19 01:47:00,
2013-06-18 18:53:00,55.4,51.3,29.77,WSW,248,0.0,0.0,86,0.00,,---,0.04,VWS V14.01,2013-06-19 01:53:00,
2013-06-18 18:58:00,55.4,51.6,29.77,WSW,248,0.0,0.0,87,0.00,,---,0.04,VWS V14.01,2013-06-19 01:58:00,
2013-06-18 19:03:00,55.6,51.8,29.77,WSW,248,0.0,0.0,87,0.00,,---,0.04,VWS V14.01,2013-06-19 02:03:00,
2013-06-18 19:08:00,55.6,51.8,29.77,WSW,248,0.0,0.0,87,0.00,,---,0.04,VWS V14.01,2013-06-19 02:08:00,
2013-06-18 19:14:00,55.8,52.0,29.77,WSW,248,0.0,0.0,87,0.00,,---,0.04,VWS V14.01,2013-06-19 02:14:00,
2013-06-18 19:19:00,55.8,52.0,29.77,WSW,248,0.0,0.0,87,0.00,,---,0.04,VWS V14.01,2013-06-19 02:19:00,
2013-06-18 19:24:00,55.9,52.1,29.77,WSW,248,0.0,0.0,87,0.00,,---,0.04,VWS V14.01,2013-06-19 02:24:00,
2013-06-18 19:29:00,55.9,52.4,29.77,WSW,248,0.0,0.0,88,0.00,,---,0.04,VWS V14.01,2013-06-19 02:29:00,
2013-06-18 19:34:00,55.9,52.4,29.77,WSW,248,0.0,0.0,88,0.00,,---,0.04,VWS V14.01,2013-06-19 02:34:00,
2013-06-18 19:40:00,55.8,52.3,29.77,WSW,248,0.0,0.0,88,0.00,,---,0.04,VWS V14.01,2013-06-19 02:40:00,
2013-06-18 19:45:00,55.6,52.1,29.77,WSW,248,0.0,0.0,88,0.00,,---,0.04,VWS V14.01,2013-06-19 02:45:00,
2013-06-18 19:50:00,55.6,52.1,29.77,WSW,248,0.0,0.0,88,0.00,,---,0.04,VWS V14.01,2013-06-19 02:50:00,
2013-06-18 19:55:00,55.4,51.9,29.77,WSW,248,0.0,0.0,88,0.00,,---,0.04,VWS V14.01,2013-06-19 02:55:00,
2013-06-18 20:00:00,55.2,51.7,29.77,WSW,248,0.0,0.0,88,0.00,,---,0.04,VWS V14.01,2013-06-19 03:00:00,
2013-06-18 20:05:00,54.9,51.4,29.77,WSW,248,0.0,0.0,88,0.00,,---,0.04,VWS V14.01,2013-06-19 03:05:00,
2013-06-18 20:10:00,54.7,51.2,29.77,WSW,248,0.0,0.0,88,0.00,,---,0.04,VWS V14.01,2013-06-19 03:10:00,
2013-06-18 20:15:00,54.5,51.0,29.77,WSW,248,0.0,0.0,88,0.00,,---,0.04,VWS V14.01,2013-06-19 03:15:00,
2013-06-18 20:21:00,54.5,51.0,29.77,WSW,248,0.0,0.0,88,0.00,,---,0.04,VWS V14.01,2013-06-19 03:21:00,
2013-06-18 20:26:00,54.3,50.8,29.77,WSW,248,0.0,0.0,88,0.00,,---,0.04,VWS V14.01,2013-06-19 03:26:00,
2013-06-18 20:31:00,54.1,50.7,29.77,WSW,248,0.0,0.0,88,0.00,,---,0.04,VWS V14.01,2013-06-19 03:31:00,
2013-06-18 20:36:00,54.0,50.5,29.77,WSW,248,0.0,0.0,88,0.00,,---,0.04,VWS V14.01,2013-06-19 03:36:00,
2013-06-18 20:41:00,54.0,50.5,29.77,WSW,248,0.0,0.0,88,0.00,,---,0.04,VWS V14.01,2013-06-19 03:41:00,
2013-06-18 20:46:00,53.8,50.3,29.77,SE,129,2.2,3.1,88,0.00,,---,0.04,VWS V14.01,2013-06-19 03:46:00,
2013-06-18 20:51:00,53.6,50.1,29.77,SE,139,3.6,3.6,88,0.00,,---,0.04,VWS V14.01,2013-06-19 03:51:00,
2013-06-18 20:56:00,53.2,50.1,29.77,SE,137,0.0,3.6,89,0.00,,---,0.04,VWS V14.01,2013-06-19 03:56:00,
2013-06-18 21:01:00,53.1,49.9,29.77,SE,137,0.0,0.0,89,0.00,,---,0.04,VWS V14.01,2013-06-19 04:01:00,
2013-06-18 21:02:00,53.1,49.9,29.77,SE,137,0.0,0.0,89,0.00,,---,0.04,VWS V14.01,2013-06-19 04:02:00,
2013-06-18 21:03:00,53.1,49.9,29.77,SE,137,0.0,0.0,89,0.00,,---,0.04,VWS V14.01,2013-06-19 04:03:00,
2013-06-18 21:08:00,52.9,49.7,29.77,SE,137,0.0,0.0,89,0.00,,---,0.04,VWS V14.01,2013-06-19 04:08:00,
2013-06-18 21:13:00,52.7,49.5,29.77,SE,137,0.0,0.0,89,0.00,,---,0.04,VWS V14.01,2013-06-19 04:13:00,
2013-06-18 21:18:00,52.7,49.5,29.77,SE,137,0.0,0.0,89,0.00,,---,0.04,VWS V14.01,2013-06-19 04:18:00,
2013-06-18 21:23:00,52.5,49.4,29.77,SE,137,0.0,0.0,89,0.00,,---,0.04,VWS V14.01,2013-06-19 04:23:00,
2013-06-18 21:28:00,52.5,49.4,29.77,SE,137,0.0,0.0,89,0.00,,---,0.04,VWS V14.01,2013-06-19 04:28:00,
2013-06-18 21:34:00,52.5,49.4,29.77,SE,137,0.0,0.0,89,0.00,,---,0.04,VWS V14.01,2013-06-19 04:34:00,
2013-06-18 21:39:00,52.5,49.4,29.77,SE,137,0.0,0.0,89,0.00,,---,0.04,VWS V14.01,2013-06-19 04:39:00,
2013-06-18 21:44:00,52.3,49.5,29.77,SE,137,0.0,0.0,90,0.00,,---,0.04,VWS V14.01,2013-06-19 04:44:00,
2013-06-18 21:49:00,52.3,49.5,29.77,SE,137,0.0,0.0,90,0.00,,---,0.04,VWS V14.01,2013-06-19 04:49:00,
2013-06-18 21:54:00,52.3,49.5,29.77,SE,137,0.0,0.0,90,0.00,,---,0.04,VWS V14.01,2013-06-19 04:54:00,
2013-06-18 21:59:00,52.3,49.5,29.77,SE,137,0.0,0.0,90,0.00,,---,0.04,VWS V14.01,2013-06-19 04:59:00,
2013-06-18 22:04:00,52.3,49.5,29.77,SE,137,0.0,0.0,90,0.04,,---,0.08,VWS V14.01,2013-06-19 05:04:00,
2013-06-18 22:10:00,52.3,49.5,29.77,SE,137,0.0,0.0,90,0.04,,---,0.08,VWS V14.01,2013-06-19 05:10:00,
2013-06-18 22:15:00,52.2,49.3,29.77,SE,144,4.0,5.8,90,0.04,,---,0.08,VWS V14.01,2013-06-19 05:15:00,
2013-06-18 22:20:00,52.2,49.3,29.77,ENE,77,0.0,5.8,90,0.04,,---,0.08,VWS V14.01,2013-06-19 05:20:00,
2013-06-18 22:25:00,52.2,49.3,29.77,NNE,17,0.0,0.0,90,0.04,,---,0.08,VWS V14.01,2013-06-19 05:25:00,
2013-06-18 22:30:00,52.0,49.1,29.77,NNE,17,0.0,0.0,90,0.04,,---,0.08,VWS V14.01,2013-06-19 05:30:00,
2013-06-18 22:35:00,52.0,49.1,29.77,NNE,17,0.0,0.0,90,0.04,,---,0.08,VWS V14.01,2013-06-19 05:35:00,
2013-06-18 22:40:00,52.0,49.1,29.77,NNE,17,0.0,0.0,90,0.04,,---,0.08,VWS V14.01,2013-06-19 05:40:00,
2013-06-18 22:45:00,51.8,49.0,29.77,NNE,17,0.0,0.0,90,0.04,,---,0.08,VWS V14.01,2013-06-19 05:45:00,
2013-06-18 22:50:00,51.8,49.0,29.77,NNE,29,0.0,0.0,90,0.04,,---,0.08,VWS V14.01,2013-06-19 05:50:00,
2013-06-18 22:56:00,51.8,49.0,29.77,NNE,29,0.0,0.0,90,0.04,,---,0.08,VWS V14.01,2013-06-19 05:56:00,
2013-06-18 23:01:00,51.8,49.0,29.77,NNE,29,0.0,0.0,90,0.04,,---,0.08,VWS V14.01,2013-06-19 06:01:00,
2013-06-18 23:06:00,51.8,49.0,29.77,East,93,0.0,0.0,90,0.04,,---,0.08,VWS V14.01,2013-06-19 06:06:00,
2013-06-18 23:11:00,51.8,49.0,29.77,East,82,0.0,0.0,90,0.00,,---,0.08,VWS V14.01,2013-06-19 06:11:00,
2013-06-18 23:16:00,51.8,49.0,29.77,ESE,117,3.6,4.0,90,0.00,,---,0.08,VWS V14.01,2013-06-19 06:16:00,
2013-06-18 23:21:00,51.6,48.8,29.77,ESE,107,0.0,0.0,90,0.00,,---,0.08,VWS V14.01,2013-06-19 06:21:00,
2013-06-18 23:26:00,51.6,48.8,29.77,ESE,107,0.0,0.0,90,0.00,,---,0.08,VWS V14.01,2013-06-19 06:26:00,
2013-06-18 23:31:00,51.6,48.8,29.77,ESE,107,0.0,0.0,90,0.00,,---,0.08,VWS V14.01,2013-06-19 06:31:00,
2013-06-18 23:36:00,51.4,48.6,29.77,ESE,107,0.0,0.0,90,0.00,,---,0.08,VWS V14.01,2013-06-19 06:36:00,
2013-06-18 23:42:00,51.4,48.6,29.77,NE,45,0.0,0.0,90,0.00,,---,0.08,VWS V14.01,2013-06-19 06:42:00,
2013-06-18 23:47:00,51.4,48.6,29.77,NE,46,0.0,0.0,90,0.00,,---,0.08,VWS V14.01,2013-06-19 06:47:00,
2013-06-18 23:52:00,51.4,48.6,29.77,NE,46,0.0,0.0,90,0.00,,---,0.08,VWS V14.01,2013-06-19 06:52:00,
2013-06-18 23:57:00,51.4,48.6,29.77,NE,46,0.0,0.0,90,0.00,,---,0.08,VWS V14.01,2013-06-19 06:57:00,